DG5TKE Weather Reports


time (UTC)temp
C
wind
direction
speed
KPH
gust
KPH
rain 1hr
cm
rain 24hr
cm
rain mn
cm
humidity
%
barometer
mb
20260509173003 15 53 6.4 16.1 0.00 0.00 0.00 65 1014.9
20260509172006 15 40 8.0 19.3 0.00 0.00 0.00 65 1015.0
20260509171003 15 45 8.0 16.1 0.00 0.00 0.00 64 1015.0
20260509170003 16 48 8.0 20.9 0.00 0.00 0.00 64 1014.9
20260509165216 16 78 8.0 17.7 0.00 0.00 0.00 64 1014.8
20260509164003 16 73 8.0 19.3 0.00 0.00 0.00 62 1014.9
20260509163006 16 78 8.0 16.1 0.00 0.00 0.00 60 1014.9
20260509162003 16 76 6.4 16.1 0.00 0.00 0.00 60 1014.9
20260509161218 16 51 6.4 14.5 0.00 0.00 0.00 61 1015.0
20260509160006 16 46 8.0 17.7 0.00 0.00 0.00 61 1015.1
20260509155223 16 50 8.0 16.1 0.00 0.00 0.00 61 1015.2
20260509154003 16 47 8.0 17.7 0.00 0.00 0.00 61 1015.3
20260509153003 16 49 6.4 16.1 0.00 0.00 0.00 63 1015.4
20260509152003 16 66 8.0 20.9 0.00 0.00 0.00 60 1015.6
20260509151003 17 60 6.4 16.1 0.00 0.00 0.00 61 1015.6
20260509150218 16 55 6.4 14.5 0.00 0.00 0.00 62 1015.6
20260509145006 16 31 8.0 17.7 0.00 0.00 0.00 62 1015.8
20260509144003 16 49 8.0 16.1 0.00 0.00 0.00 62 1015.7
20260509143003 17 49 8.0 17.7 0.00 0.00 0.00 60 1015.8
20260509142003 17 35 6.4 12.9 0.00 0.00 0.00 62 1015.9
20260509141218 17 48 8.0 16.1 0.00 0.00 0.00 63 1016.0
20260509140004 16 41 6.4 17.7 0.00 0.00 0.00 65 1016.2
20260509135003 16 30 9.7 16.1 0.00 0.00 0.00 63 1016.3
20260509134006 16 25 9.7 16.1 0.00 0.00 0.00 62 1016.4
20260509133003 16 20 6.4 16.1 0.00 0.00 0.00 62 1016.5
20260509132003 16 32 6.4 16.1 0.00 0.00 0.00 62 1016.6
20260509131003 16 57 4.8 12.9 0.00 0.00 0.00 60 1016.7
20260509130003 17 114 3.2 9.7 0.00 0.00 0.00 61 1016.8
20260509125003 16 113 3.2 11.3 0.00 0.00 0.00 60 1016.9
20260509124003 16 72 4.8 11.3 0.00 0.00 0.00 61 1017.0
20260509123003 16 50 4.8 11.3 0.00 0.00 0.00 61 1017.0
20260509122006 16 85 6.4 14.5 0.00 0.00 0.00 63 1017.0
20260509121003 16 71 6.4 17.7 0.00 0.00 0.00 63 1017.2
20260509120217 16 49 4.8 17.7 0.00 0.00 0.00 65 1017.3
20260509115003 15 60 6.4 14.5 0.00 0.00 0.00 67 1017.3
20260509114216 15 77 6.4 16.1 0.00 0.00 0.00 68 1017.3
20260509113003 15 76 6.4 14.5 0.00 0.00 0.00 68 1017.4
20260509112003 15 77 6.4 16.1 0.00 0.00 0.00 68 1017.5
20260509111006 15 37 6.4 12.9 0.00 0.00 0.00 70 1017.6
20260509110003 14 58 6.4 14.5 0.00 0.00 0.00 71 1017.8
20260509105003 14 55 4.8 14.5 0.00 0.00 0.00 70 1017.9
20260509104003 14 44 3.2 14.5 0.00 0.00 0.00 70 1017.9
20260509103218 14 60 3.2 11.3 0.00 0.00 0.00 71 1017.9
20260509102003 14 84 4.8 8.0 0.00 0.00 0.00 72 1017.9
20260509101003 14 154 4.8 8.0 0.00 0.00 0.00 72 1018.0
20260509100004 14 112 3.2 11.3 0.00 0.00 0.00 73 1018.1
20260509095003 14 46 3.2 8.0 0.00 0.00 0.00 73 1018.1
20260509094218 13 104 4.8 12.9 0.00 0.00 0.00 72 1018.1
20260509093003 13 117 3.2 11.3 0.00 0.00 0.00 74 1018.3
20260509092003 13 126 1.6 6.4 0.00 0.00 0.00 74 1018.3
20260509091006 14 164 3.2 4.8 0.00 0.00 0.00 73 1018.3
20260509090003 13 121 3.2 9.7 0.00 0.00 0.00 75 1018.4
20260509085218 14 134 4.8 11.3 0.00 0.00 0.00 75 1018.4
20260509084220 13 140 3.2 11.3 0.00 0.00 0.00 78 1018.5
20260509083003 12 138 3.2 8.0 0.00 0.00 0.00 79 1018.6
20260509082003 12 172 3.2 6.4 0.00 0.00 0.00 81 1018.7
20260509081221 12 78 3.2 6.4 0.00 0.00 0.00 80 1018.7
20260509080003 12 118 4.8 11.3 0.00 0.00 0.00 80 1018.7
20260509075003 12 135 3.2 8.0 0.00 0.00 0.00 82 1018.7
20260509074221 11 172 3.2 9.7 0.00 0.00 0.00 83 1018.7
20260509073217 11 141 3.2 11.3 0.00 0.00 0.00 85 1018.7
20260509072217 11 161 3.2 11.3 0.00 0.00 0.00 86 1018.7
20260509071006 10 204 3.2 6.4 0.00 0.00 0.00 86 1018.7
20260509070006 10 193 3.2 8.0 0.00 0.00 0.00 86 1018.7
20260509065003 10 186 3.2 9.7 0.00 0.00 0.00 87 1018.7
20260509064003 10 217 4.8 8.0 0.00 0.00 0.00 88 1018.6
20260509063003 10 194 3.2 8.0 0.00 0.00 0.00 88 1018.6
20260509062003 9 168 3.2 9.7 0.00 0.00 0.00 89 1018.5
20260509061006 9 172 1.6 9.7 0.00 0.00 0.00 90 1018.5
20260509060004 9 129 1.6 8.0 0.00 0.00 0.00 90 1018.5
20260509055003 9 0 0.0 6.4 0.00 0.00 0.00 90 1018.5
20260509054003 8 0 0.0 0.0 0.00 0.00 0.00 91 1018.5
20260509053003 8 0 0.0 0.0 0.00 0.00 0.00 91 1018.5
20260509052003 8 131 1.6 4.8 0.00 0.00 0.00 91 1018.4
20260509051003 8 154 1.6 4.8 0.00 0.00 0.00 91 1018.4
20260509050006 8 97 3.2 6.4 0.00 0.00 0.00 91 1018.3
20260509045218 8 103 3.2 6.4 0.00 0.00 0.00 91 1018.3
20260509044003 8 95 3.2 4.8 0.00 0.00 0.00 91 1018.2
20260509043003 8 105 3.2 8.0 0.00 0.00 0.00 91 1018.1
20260509042003 8 125 0.0 4.8 0.00 0.00 0.00 92 1018.1
20260509041006 8 117 1.6 4.8 0.00 0.00 0.00 92 1018.1
20260509040003 8 86 1.6 4.8 0.00 0.00 0.00 92 1018.2
20260509035218 8 70 1.6 4.8 0.00 0.00 0.00 93 1018.3
20260509034003 8 37 1.6 4.8 0.00 0.00 0.00 93 1018.2
20260509033003 8 30 3.2 4.8 0.00 0.00 0.00 93 1018.2
20260509032003 8 31 1.6 6.4 0.00 0.00 0.00 93 1018.2
20260509031003 8 42 3.2 4.8 0.00 0.00 0.00 93 1018.2
20260509030006 8 41 3.2 11.3 0.00 0.00 0.00 93 1018.3
20260509025003 8 27 3.2 6.4 0.00 0.00 0.00 93 1018.3
20260509024003 8 13 1.6 4.8 0.00 0.00 0.00 93 1018.2
20260509023003 8 358 1.6 6.4 0.00 0.00 0.00 93 1018.3
20260509022003 8 9 0.0 3.2 0.00 0.00 0.00 93 1018.3
20260509021003 8 20 0.0 1.6 0.00 0.00 0.00 92 1018.3
20260509020003 8 13 1.6 3.2 0.00 0.00 0.00 92 1018.3
20260509015003 8 0 0.0 3.2 0.00 0.00 0.00 92 1018.4
20260509014217 8 0 0.0 3.2 0.00 0.00 0.00 92 1018.3
20260509013003 8 0 0.0 0.0 0.00 0.00 0.00 92 1018.3
20260509012217 8 0 0.0 0.0 0.00 0.00 0.00 91 1018.3
20260509011003 9 0 0.0 0.0 0.00 0.00 0.00 91 1018.2
20260509010217 9 0 0.0 0.0 0.00 0.00 0.00 91 1018.2
20260509005003 9 0 0.0 0.0 0.00 0.00 0.00 91 1018.2
20260509004003 9 0 0.0 0.0 0.00 0.00 0.00 91 1018.2
20260509003006 9 0 0.0 3.2 0.00 0.00 0.00 91 1018.3
20260509002216 9 0 0.0 3.2 0.00 0.00 0.00 91 1018.3
20260509001003 9 0 0.0 0.0 0.00 0.00 0.00 91 1018.4
20260509000220 9 0 0.0 0.0 0.00 0.00 0.00 91 1018.5
20260508235218 9 116 0.0 4.8 0.00 0.00 0.00 91 1018.5
20260508234218 9 126 3.2 4.8 0.00 0.00 0.00 91 1018.5
20260508233003 9 131 3.2 9.7 0.00 0.00 0.00 91 1018.4
20260508232218 9 115 3.2 4.8 0.00 0.00 0.00 91 1018.4
20260508231006 9 79 3.2 6.4 0.00 0.00 0.00 91 1018.5
20260508230218 9 68 1.6 4.8 0.00 0.00 0.00 91 1018.5
20260508225003 9 56 0.0 4.8 0.00 0.00 0.00 91 1018.6
20260508224003 9 0 0.0 3.2 0.00 0.00 0.00 91 1018.7
20260508223218 9 0 0.0 3.2 0.00 0.00 0.00 91 1018.6
20260508222003 9 0 0.0 1.6 0.00 0.00 0.00 91 1018.6
20260508221003 9 0 0.0 1.6 0.00 0.00 0.00 90 1018.6
20260508220004 9 0 0.0 0.0 0.00 0.00 0.00 90 1018.6
20260508215006 9 0 0.0 3.2 0.00 0.00 0.00 90 1018.6
20260508214003 9 86 0.0 3.2 0.00 0.00 0.00 90 1018.6
20260508213003 9 84 1.6 4.8 0.00 0.00 0.00 90 1018.6
20260508212003 9 35 1.6 4.8 0.00 0.00 0.00 90 1018.6
20260508211003 9 0 0.0 3.2 0.00 0.00 0.00 89 1018.7
20260508210003 9 40 1.6 1.6 0.00 0.00 0.00 89 1018.7
20260508205003 9 47 1.6 4.8 0.00 0.00 0.00 89 1018.7
20260508204003 9 68 1.6 4.8 0.00 0.00 0.00 89 1018.7
20260508203006 9 65 1.6 4.8 0.00 0.00 0.00 89 1018.6
20260508202217 9 57 1.6 6.4 0.00 0.00 0.00 89 1018.7
20260508201003 9 41 3.2 8.0 0.00 0.00 0.00 89 1018.7
20260508200003 9 25 3.2 6.4 0.00 0.00 0.00 89 1018.6
20260508195217 10 18 1.6 6.4 0.00 0.00 0.00 89 1018.7
20260508194003 10 1 1.6 4.8 0.00 0.00 0.00 89 1018.7
20260508193003 10 22 1.6 6.4 0.00 0.00 0.00 89 1018.6
20260508192003 10 19 3.2 8.0 0.00 0.00 0.00 88 1018.5
20260508191006 10 11 3.2 12.9 0.00 0.00 0.00 88 1018.4
20260508190003 10 38 3.2 4.8 0.00 0.03 0.00 88 1018.3
20260508185003 10 52 3.2 8.0 0.00 0.03 0.00 88 1018.2
20260508184003 10 40 3.2 6.4 0.00 0.03 0.00 87 1018.1
20260508183218 10 51 4.8 9.7 0.00 0.03 0.00 87 1018.0
20260508182003 10 55 4.8 8.0 0.00 0.03 0.00 87 1018.0
20260508181003 10 58 3.2 12.9 0.00 0.03 0.00 87 1017.9
20260508180006 10 47 4.8 9.7 0.00 0.03 0.00 86 1017.8
20260508175003 10 66 3.2 9.7 0.00 0.03 0.00 86 1017.8
20260508174218 10 52 6.4 8.0 0.00 0.03 0.00 86 1017.7